Regional Weather Roundup
Issued by NWS Columbia, SC

Home | Current Version | Previous Version | Text Only | Print | Product List | Glossary On
Versions: 1 2 3 4 5 6 7 8 9 10 11 12 13 14 15 16 17 18 19 20 21 22 23 24 25 26 27 28
000
ASUS42 KCAE 222010
RWRCAE
REGIONAL WEATHER ROUNDUP
NATIONAL WEATHER SERVICE COLUMBIA SC
400 PM EDT MON MAY 22 2017

NOTE: "FAIR" INDICATES FEW OR NO CLOUDS BELOW 12,000 FEET WITH NO
SIGNIFICANT WEATHER AND/OR OBSTRUCTIONS TO VISIBILITY.

NOT ALL STATIONS ARE QUALITY CONTROLLED BY THE NATIONAL
WEATHER SERVICE. USE DATA WITH CAUTION...ESPECIALLY
DEWPOINT OBSERVATIONS.

SCZ001>056-GAZ040-063>065-077-222100-
...UPSTATE SOUTH CAROLINA...

CITY           SKY/WX    TMP DP  RH WIND       PRES   REMARKS
ANDERSON       LGT RAIN  75  68  78 NW25G36   30.01R
SPARTANBURG    MOSUNNY   77  64  65 CALM      29.98F HAZE
CLEMSON        LGT RAIN  68  63  84 W8        30.02F
GREENVILLE     CLOUDY    79  66  64 W7        29.99F
GREENWOOD      LGT RAIN  74  67  78 SW6       29.98F
GREER          CLOUDY    78  66  66 W3        29.98F
ROCK HILL      CLOUDY    80  68  66 W7        29.98F
CHESTER        CLOUDY    81  66  61 CALM      29.98F
LAURENS        LGT RAIN  77  72  83 CALM      29.98F


...CENTRAL SOUTH CAROLINA...

CITY           SKY/WX    TMP DP  RH WIND       PRES   REMARKS
COLUMBIA APT   CLOUDY    78  69  73 NE5       29.94F
COLUMBIA OWENS CLOUDY    76  70  82 CALM      29.96F
MCENTIRE ANGB  CLOUDY    78  62  59 CALM      29.96F THUNDER
ORANGEBURG     CLOUDY    82  69  64 SW8       29.95F
SUMTER SHAW    TSTM      72  66  83 NW15G28   29.93F VSB 3/4
NEWBERRY       CLOUDY    68  64  88 W5        30.02F
AIKEN          MOCLDY    79  66  65 W10       30.00R
BARNWELL       DRIZZLE   73  73 100 S8        29.99R
MANNING        FAIR      82  73  74 S13       29.95F
CAMDEN         RAIN      75  73  94 SW7       29.97F
LANCASTER      CLOUDY    81  72  74 S5        29.98S
WINNSBORO      CLOUDY    68  64  88 E6        29.98F


...EASTERN AND COASTAL SOUTH CAROLINA...

CITY           SKY/WX    TMP DP  RH WIND       PRES   REMARKS
MYRTLE BEACH   MOSUNNY   81  72  74 S18       29.97F
N MYRTLE BCH   CLOUDY    81  72  74 S16       29.96F
CONWAY         FAIR      77  70  78 CALM      29.94F
MARION         MOCLDY    84  68  58 S8        29.94F
HARTSVILLE     FAIR      81  70  69 CALM      29.95F
FLORENCE       CLOUDY    85  69  58 S8        29.94F
DARLINGTON     CLOUDY    84  70  62 SW5       29.95F
CHARLESTON APT PTSUNNY   83  70  64 S13       29.95F
MOUNT PLEASANT FAIR      81  73  78 S13G18    29.96F
WALTERBORO     TSTM      73  68  83 S20G26    29.99R
BEAUFORT       CLOUDY    76  73  91 CALM      29.95F


...EASTERN GEORGIA...

CITY           SKY/WX    TMP DP  RH WIND       PRES   REMARKS
AUGUSTA BUSH F LGT RAIN  76  71  85 SE10      29.95R
AUGUSTA DANIEL CLOUDY    79  65  62 E8        29.98R
THOMSON        RAIN      70  68  94 NW5       30.03F FOG
WASHINGTON     FAIR      75  73  94 W3        29.98F
CLAXTON        FAIR      85  78  77 W3        29.94F HX  96
SYLVANIA       CLOUDY    80  76  86 CALM      29.96F
STATESBORO     CLOUDY    83  72  69 CALM      29.95F
SAVANNAH       CLOUDY    81  70  69 E13       29.93F


...SOUTHERN NORTH CAROLINA...

CITY           SKY/WX    TMP DP  RH WIND       PRES   REMARKS
CHARLOTTE      PTSUNNY   81  67  62 VRB5      29.98F
MONROE         CLOUDY    81  66  60 CALM      29.97F
WADESBORO      CLOUDY    82  67  60 CALM      29.96F
ROCKINGHAM     CLOUDY    82  71  69 NW5       29.95F
RUTHERFORDTON  CLOUDY    74  73  95 CALM      30.01S
ASHEVILLE      CLOUDY    71  64  78 SW5       30.04F HAZE

$$




USA.gov is the U.S. government's official web portal to all federal, state and local government web resources and services.